Phoenix Deer Valley, AZ

2:44 AM MST on December 07, 2019 (GMT -0700)
Phoenix-Deer Valley Municipal

Weather History for KDVT - September, 2019

Change the Weather History Date:

Wednesday, September 18, 2019

  Actual Average Record
Temperature  
Mean Temperature 86 °F -  
Max Temperature 98 °F 94 °F 104 °F (2010)
Min Temperature 75 °F 73 °F 68 °F (2005)
Cooling Degree Days 22    
Growing Degree Days 36 (Base 50)    
Moisture  
Dew Point 52 °F    
Average Humidity 32    
Maximum Humidity 50    
Minimum Humidity 17    
Precipitation  
Precipitation 0.00 in - - ()
Sea Level Pressure  
Sea Level Pressure 29.77 in    
Wind  
Wind Speed 4 mph ()    
Max Wind Speed 14 mph    
Max Gust Speed 18 mph    
Visibility 10.0 miles    
Events      
Averages and records for this station are not official NWS values.
T = Trace of Precipitation, MM = Missing Value Source: Averaged Metar Reports

Daily Weather History Graph

Daily Weather History Graph

Search for Another Location

Airport or City:

Astronomy

Sep. 18, 2019 Rise Set
Actual Time 6:13 AM MST 6:30 PM MST
Civil Twilight 5:48 AM MST 6:55 PM MST
Nautical Twilight 5:19 AM MST 7:24 PM MST
Astronomical Twilight 4:49 AM MST 7:54 PM MST
Moon 9:18 PM MST (9/18) 10:09 AM MST (9/18)
Length of Visible Light 13h 07m
Length of Day
12h 17m
Waning Gibbous, 82% of the Moon is Illuminated
Sep 18
Waning Gibbous
Sep 21
Last Quarter
Sep 28
New
Oct 5
First Quarter
Oct 13
Full

Hourly Weather History & Observations

Time (MST) Temp. Heat Index Dew Point Humidity Pressure Visibility Wind Dir Wind Speed Gust Speed Precip Events Conditions
12:53 AM 82.0 °F 81.6 °F 55.9 °F 41% 29.78 in 10.0 mi Calm Calm - N/A   Partly Cloudy
1:53 AM 80.1 °F 80.2 °F 55.9 °F 43% 29.78 in 10.0 mi Calm Calm - N/A   Clear
2:53 AM 79.0 °F - 55.9 °F 45% 29.78 in 10.0 mi Calm Calm - N/A   Clear
3:53 AM 78.1 °F - 55.9 °F 46% 29.78 in 10.0 mi ENE 5.8 mph - N/A   Clear
4:53 AM 75.9 °F - 55.9 °F 50% 29.78 in 10.0 mi Calm Calm - N/A   Clear
5:53 AM 75.9 °F - 55.9 °F 50% 29.80 in 10.0 mi Calm Calm - N/A   Clear
6:53 AM 78.1 °F - 55.9 °F 46% 29.81 in 10.0 mi East 4.6 mph - N/A   Clear
7:53 AM 82.0 °F 81.6 °F 55.9 °F 41% 29.83 in 10.0 mi East 5.8 mph - N/A   Clear
8:53 AM 86.0 °F 84.9 °F 57.0 °F 37% 29.83 in 10.0 mi SE 10.4 mph - N/A   Clear
9:53 AM 89.1 °F 88.0 °F 57.9 °F 35% 29.84 in 10.0 mi SSE 8.1 mph - N/A   Clear
10:53 AM 90.0 °F 88.6 °F 57.0 °F 33% 29.83 in 10.0 mi Calm Calm - N/A   Clear
11:53 AM 93.0 °F 91.1 °F 55.0 °F 28% 29.81 in 10.0 mi SSW 5.8 mph - N/A   Clear
12:53 PM 95.0 °F 92.7 °F 54.0 °F 25% 29.79 in 10.0 mi South 10.4 mph - N/A   Clear
1:53 PM 96.1 °F - 51.1 °F 22% 29.77 in 10.0 mi SW 9.2 mph 18.4 mph N/A   Clear
2:53 PM 96.1 °F - 50.0 °F 21% 29.75 in 10.0 mi SW 8.1 mph 17.3 mph N/A   Clear
3:53 PM 98.1 °F - 46.0 °F 17% 29.73 in 10.0 mi WSW 13.8 mph - N/A   Clear
4:53 PM 97.0 °F - 48.0 °F 19% 29.72 in 10.0 mi SW 13.8 mph - N/A   Clear
5:53 PM 96.1 °F - 48.0 °F 19% 29.71 in 10.0 mi WSW 9.2 mph - N/A   Clear
6:53 PM 93.9 °F - 46.9 °F 20% 29.71 in 10.0 mi WSW 9.2 mph - N/A   Clear
7:53 PM 90.0 °F - 48.0 °F 24% 29.72 in 10.0 mi West 3.5 mph - N/A   Clear
8:53 PM 87.1 °F - 46.9 °F 25% 29.72 in 10.0 mi Calm Calm - N/A   Clear
9:53 PM 82.9 °F - 46.9 °F 28% 29.72 in 10.0 mi ESE 4.6 mph - N/A   Clear
10:53 PM 81.0 °F - 48.0 °F 31% 29.73 in 10.0 mi Calm Calm - N/A   Clear
11:53 PM 80.1 °F - 48.0 °F 32% 29.72 in 10.0 mi Calm Calm - N/A   Clear